Regional Weather Roundup
Issued by NWS

Home | Current Version | Previous Version | Text Only | Print | Product List | Glossary Off
Versions: 1 2 3 4 5 6 7 8 9 10 11 12 13 14 15 16 17 18 19 20 21 22 23 24 25 26 27 28 29 30 31 32 33 34 35 36 37 38 39 40 41 42 43 44 45 46 47 48 49 50

000
ASUS43 KMKX 220510
RWRWI

WISCONSIN REGIONAL WEATHER ROUNDUP
NATIONAL WEATHER SERVICE MILWAUKEE/SULLIVAN WI
1200 AM CDT TUE MAY 22 2018

NOTE: "FAIR" INDICATES FEW OR NO CLOUDS BELOW 12,000 FEET WITH NO
SIGNIFICANT WEATHER AND/OR OBSTRUCTIONS TO VISIBILITY.

WIZ001-002-006>008-014>016-023>028-220600-
NORTHWEST WISCONSIN

CITY           SKY/WX    TMP DP  RH WIND       PRES   REMARKS
SUPERIOR ARPT  CLOUDY    48  42  82 CALM      30.01S
ASHLAND        FAIR      44  38  79 W3        30.01S
HAYWARD        FAIR      56  50  80 CALM      30.02S
SIREN          CLOUDY    59  52  77 S6        30.02S
CUMBERLAND     CLOUDY    55  50  82 SE7       30.02F
RICE LAKE      CLOUDY    57  53  84 SE8       30.04R
CHETEK         CLOUDY    56  53  88 SE7       30.03S
LADYSMITH      CLOUDY    55  52  88 E5        30.05S
EAU CLAIRE     CLOUDY    56  53  90 SE5       30.01S
MENOMONIE      CLOUDY    57  55  95 E6        30.01F FOG
NEW RICHMOND   CLOUDY    57  51  80 SE6       30.02S
OSCEOLA        CLOUDY    60  53  78 SE6       30.04S
$$

WIZ003>005-009-010-017-018-220600-
NORTH CENTRAL WISCONSIN

CITY           SKY/WX    TMP DP  RH WIND       PRES   REMARKS
MANITOWISH WTR CLOUDY    53  50  89 S3        30.04S
ARBOR VITAE    CLOUDY    57  51  80 CALM      30.03F
WOODRUFF       CLOUDY    57  51  80 CALM      30.03F
RHINELANDER    CLOUDY    53  51  93 SE3       30.05F
EAGLE RIVER    CLOUDY    52  45  76 CALM      30.04F
LAND O LAKES   CLOUDY    55  45  70 S3        30.05F
PHILLIPS       CLOUDY    53  51  93 SE5       30.03F
TOMAHAWK       CLOUDY    51  48  92 CALM      30.05S
MEDFORD        CLOUDY    51  51  98 E5        30.03S FOG
MERRILL        CLOUDY    51  51 100 SE3       30.05S
$$

WIZ029-030-035-036-043>047-220600-
CENTRAL WISCONSIN

CITY           SKY/WX    TMP DP  RH WIND       PRES   REMARKS
WAUSAU         CLOUDY    50  49  96 SE7       30.03S FOG
MOSINEE        FOG       48  48 100 E5        30.05S VSB 1/2
MARSHFIELD     FOG       51  51 100 E8        30.02F VSB 1
STEVENS POINT  CLOUDY    49  49 100 E7        30.04S FOG
WAUPACA        CLOUDY    54  52  94 E5        30.05R
WAUTOMA        CLOUDY    51  50  96 E6        30.04S
WISC RAPIDS    CLOUDY    52  50  93 E8        30.04S
CAMP DOUGLAS   CLOUDY    53  53 100 NE6       30.01F FOG
$$

WIZ011>013-019>022-031-037>040-048>050-220600-
NORTHEAST WISCONSIN

CITY           SKY/WX    TMP DP  RH WIND       PRES   REMARKS
ANTIGO         CLOUDY    48  48  98 SE7       30.05F
SHAWANO        CLOUDY    53  49  88 E3        30.05S
OCONTO         CLOUDY    50  49  93 CALM      30.05F
STURGEON BAY   CLOUDY    49  46  90 SE5       30.06F
GREEN BAY      CLOUDY    51  48  89 E3        30.05S
MANITOWOC      LGT RAIN  48  48 100 CALM      30.04F FOG
APPLETON       CLOUDY    50  48  93 E3        30.03S
CLINTONVILLE   CLOUDY    51  48  89 CALM      30.05S
OSHKOSH        CLOUDY    51  50  96 SE7       30.03S
$$

WIZ032>034-041-042-053>061-220600-
SOUTHWEST WISCONSIN

CITY           SKY/WX    TMP DP  RH WIND       PRES   REMARKS
LA CROSSE      CLOUDY    59  57  93 CALM      30.00S FOG
SPARTA         CLOUDY    54  53  97 E3        30.02S FOG
VIROQUA        CLOUDY    56  56 100 E5        30.01S
BOSCOBEL       CLOUDY    59  57  93 NE3       30.00S FOG
PRAIRIE DU CHI CLOUDY    59  57  94 CALM      29.99S
PLATTEVILLE    CLOUDY    60  60 100 CALM      30.00S VSB 1/2
$$

WIZ056-057-062-063-064-067-068-220600-
SOUTH CENTRAL WISCONSIN

CITY           SKY/WX    TMP DP  RH WIND       PRES   REMARKS
REEDSBURG      CLOUDY    52  52 100 NE5       30.01F FOG
BARABOO/DELLS  FOG       52  51  96 NE3       30.02S VSB 1
LONE ROCK      CLOUDY    56  56 100 E5        30.00S FOG
MINERAL POINT  FOG       59  59 100 CALM      30.00S VSB 1
MADISON        CLOUDY    52  51  97 E5        30.00F FOG
MIDDLETON      CLOUDY    54  54 100 E5        30.01S
WATERTOWN      CLOUDY    50  50 100 E5        30.01S FOG
MONROE         CLOUDY    55  55 100 E3        29.99S FOG
JANESVILLE     CLOUDY    54  54 100 E6        30.00R FOG
$$

WIZ051-052-058>065-066-070>072-220600-
SOUTHEAST WISCONSIN

CITY           SKY/WX    TMP DP  RH WIND       PRES   REMARKS
MILWAUKEE      DRZL/FOG  48  48 100 N6        30.01F VSB 1/4
WAUKESHA       FOG       45  45 100 NE5       30.02F VSB 3/4
MILWAUKEE/TIMM CLOUDY    46  45  93 CALM      30.02F FOG
RACINE         FOG       47  46  97 N7        30.02F VSB 1/2
BURLINGTON     FOG       49  49  98 CALM      30.00S VSB 3/4
KENOSHA        FOG       49  47  93 N5        29.99F VSB 1/2
FOND DU LAC    CLOUDY    50  48  93 SE7       30.03S
SHEBOYGAN      CLOUDY    47  47 100 N3        30.03F FOG
WEST BEND      CLOUDY    46  46 100 E5        30.02F FOG
JUNEAU         CLOUDY    49  49  99 CALM      30.04R FOG
$$

LSZ147-162-220600-
LAKE SUPERIOR

STATION/POSITION TIME  TEMP    WIND        PRES    WAVE
                       AIR SEA DIR/SP/G            HT/PER
                 (UTC) (F)     (DEG/KT/KT) (MB)    (FT/S)
W MID LAKE BUOY  0450   38 36  280/  4/  6 1016.4R   0
DEVILS ISLAND    0500   45      40/  4/  5 1016.5S
SAXON HARBOR     0430   49     180/  4/  7 1015.6S
$$

LMZ867-665-643>646-220600-
LAKE MICHIGAN

STATION/POSITION TIME  TEMP    WIND        PRES    WAVE
                       AIR SEA DIR/SP/G            HT/PER
                 (UTC) (F)     (DEG/KT/KT) (MB)    (FT/S)
N MID LAKE BUOY  0450   41 38   60/  2/  4 1017.5    0
NORTHPORT PIER   0440   47                 1017.9S
KEWAUNEE LAKESHO 0448   46      30/  4/  5 1016.8F
SHEBOYGAN LAKESH 0500   46     350/  8/  9 1017.1F
PORT WASHINGTON  0440   49      30/  5/  8 1017.6F
ATWATER BUOY     0407   46 47  360/  8/ 12 1016.6
MILWAUKEE LAKESH 0450   47     350/  6/  7   N/A
KENOSHA   LAKESH 0500   48                 1015.9
$$

TC  - TEMPERATURE IN CELSIUS
VSB - VISIBILITY IN STATUTE MILES
WCI - WIND CHILL INDEX
HX  - HEAT INDEX




USA.gov is the U.S. government's official web portal to all federal, state and local government web resources and services.